Regional Weather Roundup
Issued by NWS

Home | Current Version | Previous Version | Graphics & Text | Print | Product List | Glossary On
Versions: 1 2 3 4 5 6 7 8 9 10 11 12 13 14 15 16 17 18 19 20 21 22 23 24 25 26 27 28 29 30 31 32 33 34 35 36 37 38 39 40 41 42 43 44 45 46 47 48 49 50
000
ASUS43 KOAX 222202
RWRNE

WEATHER ROUNDUP FOR NEBRASKA
NATIONAL WEATHER SERVICE OMAHA NE
500 PM CDT TUE APR 22 2014

NOTES: SATELLITE DATA IS BEING USED TO AUGMENT CLOUD COVER ABOVE
       12000 FEET.
       "FAIR" INDICATES FEW OR NO CLOUDS BELOW 12,000 FEET WITH NO
       SIGNIFICANT WEATHER AND/OR OBSTRUCTIONS TO VISIBILITY.

  * THESE STATIONS DO NOT REPORT WEATHER SUCH AS RAIN...SNOW OR FOG.

NEZ001>004-019>022-054>056-222300-
NEBRASKA PANHANDLE

CITY           SKY/WX    TMP DP  RH WIND       PRES   REMARKS
SCOTTSBLUFF    PTSUNNY   81  35  19 S18       29.68F
ALLIANCE       MOSUNNY   80  39  23 S22G35    29.71F
CHADRON        CLOUDY    77  48  35 S10       29.66F
KIMBALL        MOSUNNY   79  26  14 S12       29.74F
SIDNEY         PTSUNNY   82  34  17 S15G23    29.74F
$$

NEZ057>060-069>072-079>082-222300-
SOUTHWEST NEBRASKA

CITY           SKY/WX    TMP DP  RH WIND       PRES   REMARKS
NORTH PLATTE   PTSUNNY   76  30  18 S25G31    29.80F
IMPERIAL       SUNNY     81  41  24 S24G32    29.76F
LEXINGTON      CLOUDY    73  34  24 S22G35    29.87F
MCCOOK         SUNNY     77  37  23 S25G37    29.84F
OGALLALA       MOSUNNY   78  37  22 S20G33    29.75F
$$

NEZ005>010-023>029-035>040-094-222300-
NORTH CENTRAL NEBRASKA

CITY           SKY/WX    TMP DP  RH WIND       PRES   REMARKS
VALENTINE      MOSUNNY   76  33  21 S24G33    29.76F
AINSWORTH      MOSUNNY   75  34  22 S21G35    29.80F
BROKEN BOW     MOSUNNY   72  34  24 S32G38    29.87F
O`NEILL        SUNNY     71  25  17 SE23G33   29.89F
ORD            MOSUNNY   70  31  23 S20G31    29.89F
THEDFORD       MOSUNNY   76  32  20 S26G36    29.81F
$$

NEZ041-046>049-061>064-073>077-083>087-222300-
SOUTH CENTRAL NEBRASKA

CITY           SKY/WX    TMP DP  RH WIND       PRES   REMARKS
GRAND ISLAND   MOSUNNY   72  32  23 S20G28    29.93F
AURORA         PTSUNNY   71  31  23 S18G25    29.94F
HASTINGS       MOSUNNY   72  31  22 SE16G25   29.93F
HEBRON         PTSUNNY   72  28  19 S15       29.97F
HOLDREGE       PTSUNNY   71  32  23 S21G33    29.91F
KEARNEY *      MOSUNNY   70  34  26 S24G33    29.93F
YORK           MOSUNNY   70  30  23 S18G24    29.96F
$$

NEZ011>018-030>034-042>045-222300-
NORTHEAST NEBRASKA

CITY           SKY/WX    TMP DP  RH WIND       PRES   REMARKS
NORFOLK        CLOUDY    70  30  22 S18G28    29.94F
ALBION         MOSUNNY   70  28  21 S21G31    29.92F
BLAIR          PTSUNNY   67  31  26 E8        30.00F
COLUMBUS *     MOSUNNY   70  34  26 SE17      29.97F
FREMONT        PTSUNNY   67  31  25 SE12      30.00F
TEKAMAH        SUNNY     70  30  22 E12       29.99F
$$

NEZ050>053-065>068-078-088>093-222300-
SOUTHEAST NEBRASKA

CITY           SKY/WX    TMP DP  RH WIND       PRES   REMARKS
LINCOLN        CLOUDY    71  33  24 S12       30.00F
OMAHA EPPLEY   MOSUNNY   69  32  25 SE9       30.00F
BEATRICE       MOSUNNY   72  30  20 SE10      29.99F
FALLS CITY     SUNNY     70  31  23 CALM      30.01F
NEBRASKA CITY  SUNNY     69  31  24 E8        30.01F
PLATTSMOUTH    SUNNY     69  28  20 SE6       30.01F
$$

NEZ044-045-051>053-067-222300-
OMAHA AREA

CITY           SKY/WX    TMP DP  RH WIND       PRES   REMARKS
OMAHA EPPLEY   MOSUNNY   69  32  25 SE9       30.00F
BLAIR          PTSUNNY   67  31  26 E8        30.00F
FREMONT        PTSUNNY   67  31  25 SE12      30.00F
MILLARD        MOSUNNY   67  35  30 SE7       30.00F
OFFUTT AFB     SUNNY     69  36  29 E8        30.00F
PLATTSMOUTH    SUNNY     69  28  20 SE6       30.01F
WAHOO          CLOUDY    68  27  21 SE15      29.99F
$$



USA.gov is the U.S. government's official web portal to all federal, state and local government web resources and services.